KLM44M ENBR-BIRK

Flight info

Callsign KLM44M
Flight time 2h 16m
Altitude 40000
Route REKLI DCT VALDI/M080F400 DCT ING DCT NASBU NASBU1V
Aircraft A333/H-SDE3GHIJ2J3J5M1RVWXY/LB2D1

Departure

Time 2026-05-09 14:10
Airport Bergen Airport, Flesland (ENBR)

Arrival

Time 2026-05-09 16:27
Airport Reykjavík Domestic Airport (BIRK)
Time Latitude Longitude Altitude Speed Heading
2026-05-09 13:54 60.28936 5.22521 154 ft 0 kts 116°
2026-05-09 13:57 60.28940 5.22508 154 ft 3 kts 116°
2026-05-09 13:57 60.28948 5.22473 154 ft 3 kts 116°
2026-05-09 13:57 60.28957 5.22441 155 ft 3 kts 115°
2026-05-09 13:57 60.28961 5.22401 155 ft 3 kts 67°
2026-05-09 13:58 60.28954 5.22377 155 ft 3 kts 35°
2026-05-09 13:58 60.28947 5.22366 154 ft 0 kts 12°
2026-05-09 14:05 60.28948 5.22367 154 ft 0 kts 12°
2026-05-09 14:05 60.28959 5.22370 155 ft 4 kts
2026-05-09 14:05 60.29013 5.22371 155 ft 12 kts 358°
2026-05-09 14:06 60.29072 5.22303 156 ft 10 kts 305°
2026-05-09 14:06 60.29141 5.22207 156 ft 14 kts 346°
2026-05-09 14:06 60.29259 5.22162 157 ft 21 kts 349°
2026-05-09 14:06 60.29425 5.22108 159 ft 26 kts 352°
2026-05-09 14:07 60.29606 5.22050 160 ft 27 kts 350°
2026-05-09 14:07 60.29793 5.21986 162 ft 28 kts 350°
2026-05-09 14:07 60.29983 5.21922 163 ft 28 kts 351°
2026-05-09 14:07 60.30179 5.21855 165 ft 29 kts 351°
2026-05-09 14:08 60.30371 5.21791 167 ft 18 kts 351°
2026-05-09 14:08 60.30439 5.21728 167 ft 3 kts 292°
2026-05-09 14:08 60.30440 5.21676 167 ft 6 kts 266°
2026-05-09 14:08 60.30421 5.21524 166 ft 12 kts 253°
2026-05-09 14:09 60.30385 5.21472 165 ft 6 kts 189°
2026-05-09 14:09 60.30345 5.21480 165 ft 7 kts 167°
2026-05-09 14:09 60.30340 5.21482 164 ft 0 kts 167°
2026-05-09 14:10 60.29639 5.21719 161 ft 110 kts 170°
2026-05-09 14:10 60.28724 5.22020 284 ft 146 kts 172°
2026-05-09 14:10 60.27755 5.22373 1033 ft 139 kts 170°
2026-05-09 14:11 60.26810 5.22762 1755 ft 138 kts 170°
2026-05-09 14:11 60.25864 5.23185 2305 ft 145 kts 170°
2026-05-09 14:11 60.25177 5.23503 2591 ft 155 kts 171°
2026-05-09 14:11 60.24076 5.24029 3076 ft 168 kts 170°
2026-05-09 14:12 60.22861 5.24640 3669 ft 179 kts 168°
2026-05-09 14:12 60.21574 5.25067 3900 ft 212 kts 177°
2026-05-09 14:12 60.19991 5.25225 3929 ft 245 kts 186°
2026-05-09 14:12 60.18295 5.24292 3931 ft 251 kts 211°
2026-05-09 14:13 60.17099 5.21776 3931 ft 249 kts 246°
2026-05-09 14:14 60.25102 5.04645 5998 ft 262 kts 323°
2026-05-09 14:15 60.26548 5.02427 5997 ft 261 kts 316°
2026-05-09 14:15 60.27706 4.99636 6036 ft 258 kts 298°
2026-05-09 14:15 60.28436 4.96316 6525 ft 260 kts 289°
2026-05-09 14:15 60.28934 4.93475 7269 ft 261 kts 288°
2026-05-09 14:16 60.29517 4.90032 8355 ft 259 kts 286°
2026-05-09 14:16 60.30103 4.86558 9424 ft 258 kts 285°
2026-05-09 14:16 60.30687 4.83097 10405 ft 261 kts 284°
2026-05-09 14:16 60.31285 4.79538 10915 ft 279 kts 284°
2026-05-09 14:17 60.31929 4.75695 11303 ft 299 kts 284°
2026-05-09 14:17 60.32612 4.71646 11933 ft 309 kts 284°
2026-05-09 14:17 60.33315 4.67491 12710 ft 315 kts 284°
2026-05-09 14:17 60.34026 4.63285 13519 ft 319 kts 284°
2026-05-09 14:18 60.34745 4.59016 14315 ft 322 kts 283°
2026-05-09 14:18 60.35464 4.54733 15064 ft 324 kts 283°
2026-05-09 14:18 60.36194 4.50379 15806 ft 327 kts 282°
2026-05-09 14:18 60.36919 4.46035 16544 ft 329 kts 282°
2026-05-09 14:19 60.37653 4.41626 17272 ft 331 kts 282°
2026-05-09 14:19 60.38387 4.37202 17981 ft 334 kts 281°
2026-05-09 14:19 60.39082 4.33007 18631 ft 336 kts 281°
2026-05-09 14:19 60.39997 4.27470 19426 ft 338 kts 281°
2026-05-09 14:20 60.40660 4.23449 19927 ft 341 kts 281°
2026-05-09 14:20 60.41456 4.18599 20504 ft 345 kts 280°
2026-05-09 14:20 60.42185 4.14151 21031 ft 348 kts 280°
2026-05-09 14:21 60.43714 4.04783 22127 ft 355 kts 279°
2026-05-09 14:21 60.44489 4.00028 22769 ft 356 kts 279°
2026-05-09 14:21 60.45276 3.95184 23324 ft 358 kts 278°
2026-05-09 14:21 60.46131 3.90395 23858 ft 364 kts 281°
2026-05-09 14:22 60.47069 3.85675 24303 ft 368 kts 282°
2026-05-09 14:22 60.48075 3.80872 24778 ft 370 kts 283°
2026-05-09 14:22 60.49100 3.76086 25240 ft 371 kts 283°
2026-05-09 14:22 60.50130 3.71295 25711 ft 372 kts 283°
2026-05-09 14:23 60.51179 3.66387 26156 ft 373 kts 283°
2026-05-09 14:23 60.52204 3.61554 26582 ft 375 kts 283°
2026-05-09 14:23 60.53231 3.56675 27029 ft 376 kts 283°
2026-05-09 14:23 60.54243 3.51834 27456 ft 377 kts 283°
2026-05-09 14:24 60.55269 3.46903 27864 ft 379 kts 283°
2026-05-09 14:24 60.56295 3.41959 28284 ft 380 kts 283°
2026-05-09 14:24 60.57327 3.36970 28705 ft 383 kts 284°
2026-05-09 14:24 60.58365 3.31921 28835 ft 391 kts 284°
2026-05-09 14:25 60.59419 3.26792 29166 ft 394 kts 284°
2026-05-09 14:25 60.60472 3.21673 29587 ft 395 kts 284°
2026-05-09 14:25 60.61534 3.16506 29992 ft 397 kts 284°
2026-05-09 14:25 60.62599 3.11309 30337 ft 399 kts 284°
2026-05-09 14:26 60.63669 3.06068 30599 ft 402 kts 284°
2026-05-09 14:26 60.64743 3.00790 30834 ft 405 kts 284°
2026-05-09 14:26 60.65818 2.95492 31078 ft 408 kts 284°
2026-05-09 14:26 60.66911 2.90092 31331 ft 411 kts 285°
2026-05-09 14:27 60.68008 2.84656 31589 ft 414 kts 285°
2026-05-09 14:27 60.69101 2.79228 31802 ft 417 kts 285°
2026-05-09 14:27 60.70205 2.73732 32054 ft 419 kts 285°
2026-05-09 14:27 60.71316 2.68184 32202 ft 425 kts 286°
2026-05-09 14:28 60.72426 2.62614 32356 ft 430 kts 286°
2026-05-09 14:28 60.73570 2.56874 32563 ft 434 kts 287°
2026-05-09 14:28 60.74710 2.51141 32849 ft 435 kts 287°
2026-05-09 14:28 60.75843 2.45435 33213 ft 434 kts 287°
2026-05-09 14:29 60.76966 2.39760 33552 ft 434 kts 287°
2026-05-09 14:29 60.78095 2.34031 33864 ft 434 kts 287°
2026-05-09 14:29 60.79222 2.28296 34167 ft 435 kts 287°
2026-05-09 14:29 60.80349 2.22539 34418 ft 435 kts 287°
2026-05-09 14:30 60.81108 2.18650 34605 ft 435 kts 287°
2026-05-09 14:30 60.82597 2.11003 34927 ft 436 kts 288°
2026-05-09 14:30 60.83715 2.05239 35180 ft 436 kts 288°
2026-05-09 14:30 60.84839 1.99424 35359 ft 438 kts 288°
2026-05-09 14:31 60.85957 1.93629 35572 ft 439 kts 288°
2026-05-09 14:31 60.87085 1.87764 35802 ft 439 kts 288°
2026-05-09 14:31 60.88203 1.81936 36037 ft 440 kts 288°
2026-05-09 14:31 60.89321 1.76089 36275 ft 440 kts 288°
2026-05-09 14:32 60.90441 1.70217 36502 ft 440 kts 288°
2026-05-09 14:32 60.91542 1.64426 36721 ft 440 kts 288°
2026-05-09 14:32 60.92653 1.58565 36946 ft 441 kts 288°
2026-05-09 14:32 60.93763 1.52689 37160 ft 441 kts 288°
2026-05-09 14:33 60.94873 1.46797 37380 ft 441 kts 288°
2026-05-09 14:33 60.95983 1.40888 37600 ft 441 kts 288°
2026-05-09 14:33 60.97087 1.34993 37826 ft 441 kts 289°
2026-05-09 14:33 60.98193 1.29067 38025 ft 442 kts 289°
2026-05-09 14:34 60.99292 1.23159 38233 ft 442 kts 289°
2026-05-09 14:34 61.00317 1.17638 38422 ft 442 kts 289°
2026-05-09 14:34 61.01488 1.11315 38649 ft 442 kts 289°
2026-05-09 14:34 61.02582 1.05380 38851 ft 442 kts 289°
2026-05-09 14:35 61.03671 0.99461 39015 ft 442 kts 289°
2026-05-09 14:35 61.04756 0.93541 39185 ft 442 kts 289°
2026-05-09 14:35 61.06929 0.81632 39476 ft 443 kts 288°
2026-05-09 14:36 61.07656 0.77632 39600 ft 442 kts 288°
2026-05-09 14:36 61.08737 0.71668 39756 ft 442 kts 288°
2026-05-09 14:36 61.09811 0.65724 39931 ft 442 kts 289°
2026-05-09 14:36 61.10882 0.59779 40040 ft 442 kts 289°
2026-05-09 14:37 61.11956 0.53797 40172 ft 443 kts 289°
2026-05-09 14:37 61.13030 0.47790 40190 ft 446 kts 289°
2026-05-09 14:37 61.15183 0.35704 40190 ft 449 kts 289°
2026-05-09 14:38 61.17318 0.23647 40190 ft 447 kts 289°
2026-05-09 14:38 61.19445 0.11559 40188 ft 446 kts 288°
2026-05-09 14:39 61.21657 -0.00462 40195 ft 448 kts 292°
2026-05-09 14:39 61.24291 -0.12200 40185 ft 448 kts 294°
2026-05-09 14:40 61.27003 -0.23911 40189 ft 450 kts 294°
2026-05-09 14:40 61.29685 -0.35478 40190 ft 448 kts 294°
2026-05-09 14:41 61.32400 -0.47283 40188 ft 447 kts 294°
2026-05-09 14:41 61.35069 -0.58979 40181 ft 446 kts 294°
2026-05-09 14:42 61.37719 -0.70667 40182 ft 445 kts 293°
2026-05-09 14:42 61.40364 -0.82399 40180 ft 446 kts 294°
2026-05-09 14:43 61.42985 -0.94084 40180 ft 445 kts 294°
2026-05-09 14:43 61.45629 -1.05941 40177 ft 447 kts 294°
2026-05-09 14:44 61.48255 -1.17779 40183 ft 449 kts 293°
2026-05-09 14:44 61.50860 -1.29587 40179 ft 446 kts 293°
2026-05-09 14:45 61.53454 -1.41414 40183 ft 446 kts 293°
2026-05-09 14:45 61.56030 -1.53221 40182 ft 443 kts 293°
2026-05-09 14:46 61.58576 -1.64964 40178 ft 443 kts 293°
2026-05-09 14:46 61.61143 -1.76869 40181 ft 446 kts 293°
2026-05-09 14:47 61.63697 -1.88782 40183 ft 446 kts 293°
2026-05-09 14:47 61.66243 -2.00723 40186 ft 447 kts 293°
2026-05-09 14:48 61.68778 -2.12679 40181 ft 446 kts 292°
2026-05-09 14:48 61.71310 -2.24689 40182 ft 445 kts 293°
2026-05-09 14:49 61.73807 -2.36601 40183 ft 443 kts 292°
2026-05-09 14:49 61.76283 -2.48484 40183 ft 442 kts 292°
2026-05-09 14:50 61.78760 -2.60443 40194 ft 444 kts 292°
2026-05-09 14:50 61.81242 -2.72494 40191 ft 445 kts 292°
2026-05-09 14:51 61.83714 -2.84561 40193 ft 447 kts 292°
2026-05-09 14:51 61.86168 -2.96616 40196 ft 444 kts 293°
2026-05-09 14:52 61.88601 -3.08633 40206 ft 444 kts 292°
2026-05-09 14:52 61.91023 -3.20672 40195 ft 443 kts 292°
2026-05-09 14:53 61.93444 -3.32775 40194 ft 443 kts 292°
2026-05-09 14:53 61.95842 -3.44836 40199 ft 443 kts 292°
2026-05-09 14:54 61.98252 -3.57033 40202 ft 445 kts 292°
2026-05-09 14:54 62.00636 -3.69163 40193 ft 446 kts 292°
2026-05-09 14:55 62.03017 -3.81356 40204 ft 443 kts 292°
2026-05-09 14:55 62.05379 -3.93523 40205 ft 442 kts 292°
2026-05-09 14:56 62.07347 -4.03719 40202 ft 441 kts 292°
2026-05-09 14:56 62.09696 -4.15956 40212 ft 444 kts 292°
2026-05-09 14:57 62.12021 -4.28143 40200 ft 444 kts 292°
2026-05-09 14:57 62.14344 -4.40397 40205 ft 444 kts 292°
2026-05-09 14:58 62.16669 -4.52742 40209 ft 444 kts 292°
2026-05-09 14:58 62.18976 -4.65064 40219 ft 442 kts 292°
2026-05-09 14:59 62.21249 -4.77283 40210 ft 440 kts 292°
2026-05-09 14:59 62.23512 -4.89519 40212 ft 442 kts 292°
2026-05-09 15:00 62.25757 -5.01743 40218 ft 442 kts 292°
2026-05-09 15:00 62.28008 -5.14074 40217 ft 444 kts 292°
2026-05-09 15:01 62.31356 -5.32566 40219 ft 443 kts 292°
2026-05-09 15:02 62.33625 -5.45196 40219 ft 443 kts 292°
2026-05-09 15:02 62.35847 -5.57649 40230 ft 443 kts 292°
2026-05-09 15:03 62.38063 -5.70151 40226 ft 443 kts 292°
2026-05-09 15:03 62.40240 -5.82508 40227 ft 444 kts 292°
2026-05-09 15:04 62.42432 -5.95035 40228 ft 443 kts 292°
2026-05-09 15:06 62.43915 -6.03270 40382 ft 438 kts 292°
2026-05-09 15:06 62.46082 -6.15730 40229 ft 441 kts 291°
2026-05-09 15:07 62.48192 -6.28225 40236 ft 442 kts 291°
2026-05-09 15:07 62.49947 -6.38609 40237 ft 442 kts 291°
2026-05-09 15:08 62.52099 -6.51313 40240 ft 441 kts 291°
2026-05-09 15:08 62.55256 -6.70053 40236 ft 441 kts 291°
2026-05-09 15:10 62.63556 -7.20238 40252 ft 440 kts 291°
2026-05-09 15:11 62.65591 -7.32757 40255 ft 440 kts 291°
2026-05-09 15:11 62.67621 -7.45333 40245 ft 440 kts 291°
2026-05-09 15:12 62.69635 -7.57899 40254 ft 440 kts 291°
2026-05-09 15:12 62.71646 -7.70525 40254 ft 440 kts 291°
2026-05-09 15:13 62.73649 -7.83190 40253 ft 440 kts 291°
2026-05-09 15:13 62.75632 -7.95824 40268 ft 440 kts 291°
2026-05-09 15:14 62.77615 -8.08539 40265 ft 440 kts 291°
2026-05-09 15:14 62.79573 -8.21188 40262 ft 440 kts 291°
2026-05-09 15:15 62.81526 -8.33893 40272 ft 440 kts 291°
2026-05-09 15:15 62.83463 -8.46583 40270 ft 440 kts 290°
2026-05-09 15:16 62.85387 -8.59289 40268 ft 440 kts 290°
2026-05-09 15:16 62.87307 -8.72052 40275 ft 440 kts 290°
2026-05-09 15:17 62.89205 -8.84762 40276 ft 440 kts 290°
2026-05-09 15:17 62.91111 -8.97623 40276 ft 440 kts 290°
2026-05-09 15:18 62.92990 -9.10405 40281 ft 439 kts 290°
2026-05-09 15:18 62.94852 -9.23153 40282 ft 438 kts 290°
2026-05-09 15:19 62.96712 -9.35985 40289 ft 438 kts 290°
2026-05-09 15:19 62.98552 -9.48779 40292 ft 438 kts 290°
2026-05-09 15:20 63.01283 -9.67953 40295 ft 438 kts 290°
2026-05-09 15:21 63.03104 -9.80864 40263 ft 438 kts 290°
2026-05-09 15:21 63.04906 -9.93737 40291 ft 441 kts 290°
2026-05-09 15:22 63.06732 -10.06866 40302 ft 449 kts 290°
2026-05-09 15:22 63.08555 -10.20087 40304 ft 457 kts 290°
2026-05-09 15:23 63.10406 -10.33630 40302 ft 462 kts 290°
2026-05-09 15:23 63.11949 -10.45017 40298 ft 462 kts 290°
2026-05-09 15:24 63.13879 -10.59379 40298 ft 462 kts 289°
2026-05-09 15:24 63.15698 -10.73020 40299 ft 461 kts 290°
2026-05-09 15:25 63.17496 -10.86618 40300 ft 460 kts 290°
2026-05-09 15:25 63.19282 -11.00231 40300 ft 460 kts 289°
2026-05-09 15:26 63.21956 -11.20839 40302 ft 460 kts 289°
2026-05-09 15:26 63.23709 -11.34494 40306 ft 460 kts 289°
2026-05-09 15:27 63.25448 -11.48159 40287 ft 459 kts 289°
2026-05-09 15:27 63.27165 -11.61782 40310 ft 457 kts 289°
2026-05-09 15:28 63.28865 -11.75375 40304 ft 455 kts 289°
2026-05-09 15:28 63.30550 -11.88961 40302 ft 455 kts 289°
2026-05-09 15:29 63.32229 -12.02626 40302 ft 455 kts 289°
2026-05-09 15:29 63.33880 -12.16175 40307 ft 455 kts 289°
2026-05-09 15:30 63.35535 -12.29892 40273 ft 455 kts 289°
2026-05-09 15:30 63.37158 -12.43472 40299 ft 453 kts 289°
2026-05-09 15:31 63.38771 -12.57084 40300 ft 453 kts 289°
2026-05-09 15:31 63.40367 -12.70668 40301 ft 453 kts 289°
2026-05-09 15:32 63.41952 -12.84278 40299 ft 453 kts 289°
2026-05-09 15:32 63.43532 -12.97986 40301 ft 453 kts 289°
2026-05-09 15:33 63.45093 -13.11654 40264 ft 453 kts 289°
2026-05-09 15:33 63.46638 -13.25319 40299 ft 451 kts 289°
2026-05-09 15:34 63.48161 -13.38909 40295 ft 450 kts 288°
2026-05-09 15:34 63.49711 -13.52870 40294 ft 450 kts 288°
2026-05-09 15:35 63.50979 -13.64406 40284 ft 450 kts 288°
2026-05-09 15:35 63.52476 -13.78141 40286 ft 450 kts 288°
2026-05-09 15:36 63.53948 -13.91783 40287 ft 451 kts 288°
2026-05-09 15:36 63.55415 -14.05522 40277 ft 449 kts 288°
2026-05-09 15:37 63.56860 -14.19184 40277 ft 448 kts 288°
2026-05-09 15:37 63.58295 -14.32886 40285 ft 448 kts 288°
2026-05-09 15:38 63.59728 -14.46701 40279 ft 449 kts 288°
2026-05-09 15:38 63.61128 -14.60347 40284 ft 449 kts 288°
2026-05-09 15:39 63.62518 -14.74039 40278 ft 449 kts 288°
2026-05-09 15:39 63.63883 -14.87626 40278 ft 448 kts 288°
2026-05-09 15:40 63.65258 -15.01467 40276 ft 447 kts 288°
2026-05-09 15:40 63.66605 -15.15154 40275 ft 447 kts 287°
2026-05-09 15:41 63.67945 -15.28922 40276 ft 447 kts 287°
2026-05-09 15:41 63.69284 -15.42833 40276 ft 447 kts 287°
2026-05-09 15:42 63.70589 -15.56532 40277 ft 447 kts 287°
2026-05-09 15:42 63.71864 -15.70136 39985 ft 433 kts 287°
2026-05-09 15:43 63.72505 -15.77002 39752 ft 437 kts 288°
2026-05-09 15:43 63.73132 -15.83703 39525 ft 442 kts 288°
2026-05-09 15:43 63.73766 -15.90526 39299 ft 444 kts 287°
2026-05-09 15:43 63.74397 -15.97376 39077 ft 444 kts 287°
2026-05-09 15:44 63.75023 -16.04224 38837 ft 443 kts 288°
2026-05-09 15:44 63.75438 -16.08806 38659 ft 442 kts 288°
2026-05-09 15:44 63.76252 -16.17825 38283 ft 441 kts 288°
2026-05-09 15:44 63.76873 -16.24755 38009 ft 439 kts 288°
2026-05-09 15:45 63.77476 -16.31518 37736 ft 437 kts 288°
2026-05-09 15:45 63.78075 -16.38262 37474 ft 436 kts 288°
2026-05-09 15:45 63.78667 -16.44967 37211 ft 434 kts 288°
2026-05-09 15:45 63.79236 -16.51453 36967 ft 432 kts 288°
2026-05-09 15:46 63.79655 -16.56248 36782 ft 431 kts 288°
2026-05-09 15:46 63.80367 -16.65040 36461 ft 432 kts 286°
2026-05-09 15:46 63.80632 -16.69625 36281 ft 432 kts 285°
2026-05-09 15:46 63.80950 -16.75864 36043 ft 425 kts 285°
2026-05-09 15:47 63.81292 -16.82904 35787 ft 414 kts 285°
2026-05-09 15:47 63.81612 -16.89469 35525 ft 404 kts 285°
2026-05-09 15:47 63.81918 -16.95752 35275 ft 394 kts 286°
2026-05-09 15:47 63.82220 -17.01959 35032 ft 385 kts 286°
2026-05-09 15:48 63.82516 -17.08051 34790 ft 376 kts 287°
2026-05-09 15:48 63.82786 -17.13660 34546 ft 368 kts 287°
2026-05-09 15:48 63.83066 -17.19460 34110 ft 364 kts 287°
2026-05-09 15:48 63.83340 -17.25148 33733 ft 360 kts 287°
2026-05-09 15:49 63.83591 -17.30406 33470 ft 359 kts 287°
2026-05-09 15:49 63.83885 -17.36571 33066 ft 361 kts 287°
2026-05-09 15:49 63.84155 -17.42302 32608 ft 362 kts 287°
2026-05-09 15:49 63.84425 -17.48151 32204 ft 363 kts 287°
2026-05-09 15:50 63.84688 -17.53884 31824 ft 364 kts 286°
2026-05-09 15:50 63.84951 -17.59681 31447 ft 366 kts 286°
2026-05-09 15:50 63.85212 -17.65505 31080 ft 368 kts 286°
2026-05-09 15:50 63.85480 -17.71533 30688 ft 370 kts 285°
2026-05-09 15:51 63.85728 -17.77196 30332 ft 370 kts 285°
2026-05-09 15:51 63.85986 -17.83154 29889 ft 369 kts 285°
2026-05-09 15:51 63.86234 -17.88937 29462 ft 368 kts 285°
2026-05-09 15:51 63.86492 -17.95003 29060 ft 366 kts 285°
2026-05-09 15:52 63.86967 -18.06370 28247 ft 358 kts 284°
2026-05-09 15:52 63.87196 -18.11898 27855 ft 356 kts 284°
2026-05-09 15:52 63.87353 -18.15683 27579 ft 355 kts 284°
2026-05-09 15:53 63.87656 -18.23103 26973 ft 353 kts 284°
2026-05-09 15:53 63.87887 -18.28774 26148 ft 358 kts 283°
2026-05-09 15:53 63.88032 -18.32338 25706 ft 360 kts 283°
2026-05-09 15:53 63.88270 -18.38350 25249 ft 356 kts 283°
2026-05-09 15:54 63.88487 -18.43969 24882 ft 349 kts 282°
2026-05-09 15:54 63.88695 -18.49394 24528 ft 344 kts 282°
2026-05-09 15:54 63.88902 -18.54774 24174 ft 343 kts 282°
2026-05-09 15:54 63.89111 -18.60203 23816 ft 343 kts 282°
2026-05-09 15:55 63.89319 -18.65683 23394 ft 342 kts 282°
2026-05-09 15:55 63.89522 -18.71119 22965 ft 340 kts 281°
2026-05-09 15:55 63.89723 -18.76538 22520 ft 338 kts 281°
2026-05-09 15:55 63.89914 -18.81762 22095 ft 337 kts 281°
2026-05-09 15:56 63.90118 -18.87383 21606 ft 334 kts 281°
2026-05-09 15:56 63.90306 -18.92665 21160 ft 332 kts 281°
2026-05-09 15:56 63.90491 -18.97907 20732 ft 330 kts 280°
2026-05-09 15:56 63.90678 -19.03371 20274 ft 329 kts 280°
2026-05-09 15:57 63.90860 -19.08550 19820 ft 327 kts 279°
2026-05-09 15:57 63.91035 -19.13606 19413 ft 326 kts 279°
2026-05-09 15:57 63.91212 -19.18733 19006 ft 326 kts 279°
2026-05-09 15:57 63.91381 -19.23700 18611 ft 324 kts 279°
2026-05-09 15:58 63.91561 -19.29075 18136 ft 323 kts 279°
2026-05-09 15:58 63.91734 -19.34357 17652 ft 321 kts 279°
2026-05-09 15:58 63.91898 -19.39433 17192 ft 319 kts 278°
2026-05-09 15:58 63.92058 -19.44435 16752 ft 317 kts 278°
2026-05-09 15:59 63.92216 -19.49398 16312 ft 314 kts 278°
2026-05-09 15:59 63.92319 -19.52667 16021 ft 313 kts 278°
2026-05-09 15:59 63.92479 -19.57771 15571 ft 310 kts 278°
2026-05-09 15:59 63.92627 -19.62656 15146 ft 308 kts 278°
2026-05-09 16:00 63.92777 -19.67553 14718 ft 306 kts 278°
2026-05-09 16:00 63.92876 -19.70809 14450 ft 305 kts 278°
2026-05-09 16:00 63.93075 -19.77393 13859 ft 303 kts 278°
2026-05-09 16:00 63.93226 -19.82500 13375 ft 302 kts 278°
2026-05-09 16:01 63.93363 -19.87174 12910 ft 300 kts 277°
2026-05-09 16:01 63.93504 -19.92012 12482 ft 297 kts 277°
2026-05-09 16:01 63.93634 -19.96547 12023 ft 295 kts 276°
2026-05-09 16:01 63.93767 -20.01268 11588 ft 293 kts 276°
2026-05-09 16:02 63.93896 -20.05884 11151 ft 291 kts 276°
2026-05-09 16:02 63.94150 -20.15139 10298 ft 287 kts 276°
2026-05-09 16:02 63.94271 -20.19643 9844 ft 283 kts 276°
2026-05-09 16:03 63.94389 -20.24093 9388 ft 279 kts 276°
2026-05-09 16:03 63.94465 -20.26941 9084 ft 276 kts 275°
2026-05-09 16:03 63.94619 -20.32818 8469 ft 272 kts 275°
2026-05-09 16:03 63.94769 -20.37447 7986 ft 269 kts 276°
2026-05-09 16:04 63.94869 -20.40260 7700 ft 267 kts 276°
2026-05-09 16:04 63.95070 -20.45841 7120 ft 264 kts 276°
2026-05-09 16:04 63.95220 -20.50024 6679 ft 262 kts 276°
2026-05-09 16:04 63.95367 -20.54155 6233 ft 260 kts 275°
2026-05-09 16:05 63.95465 -20.56920 6053 ft 255 kts 275°
2026-05-09 16:05 63.95602 -20.60839 5999 ft 249 kts 275°
2026-05-09 16:05 63.95739 -20.64770 6001 ft 249 kts 275°
2026-05-09 16:05 63.95886 -20.68751 6003 ft 249 kts 277°
2026-05-09 16:06 63.96310 -20.72539 6002 ft 249 kts 294°
2026-05-09 16:06 63.97246 -20.75850 6005 ft 250 kts 307°
2026-05-09 16:06 63.98370 -20.78894 6002 ft 250 kts 309°
2026-05-09 16:06 63.99519 -20.81888 5998 ft 250 kts 309°
2026-05-09 16:07 64.00661 -20.84872 6003 ft 250 kts 309°
2026-05-09 16:07 64.01797 -20.87865 6004 ft 250 kts 309°
2026-05-09 16:07 64.02922 -20.90845 6001 ft 250 kts 309°
2026-05-09 16:07 64.04063 -20.93878 5997 ft 249 kts 309°
2026-05-09 16:08 64.05205 -20.96925 6002 ft 250 kts 309°
2026-05-09 16:08 64.06325 -20.99916 6001 ft 249 kts 308°
2026-05-09 16:08 64.07453 -21.02936 5893 ft 249 kts 308°
2026-05-09 16:08 64.08577 -21.05949 5726 ft 248 kts 308°
2026-05-09 16:09 64.09705 -21.08982 5917 ft 249 kts 308°
2026-05-09 16:09 64.10809 -21.11953 5995 ft 250 kts 309°
2026-05-09 16:09 64.11997 -21.15154 6001 ft 250 kts 308°
2026-05-09 16:09 64.13075 -21.18059 6001 ft 250 kts 308°
2026-05-09 16:10 64.14231 -21.21176 6004 ft 250 kts 308°
2026-05-09 16:10 64.15333 -21.24156 6001 ft 250 kts 308°
2026-05-09 16:10 64.16469 -21.27227 6003 ft 250 kts 308°
2026-05-09 16:10 64.17597 -21.30275 6007 ft 250 kts 308°
2026-05-09 16:11 64.18723 -21.33330 6002 ft 250 kts 308°
2026-05-09 16:11 64.19843 -21.36380 6010 ft 250 kts 308°
2026-05-09 16:11 64.20965 -21.39439 5828 ft 250 kts 308°
2026-05-09 16:11 64.22082 -21.42482 5557 ft 249 kts 308°
2026-05-09 16:12 64.23195 -21.45525 5343 ft 246 kts 308°
2026-05-09 16:12 64.24282 -21.48503 5200 ft 240 kts 308°
2026-05-09 16:12 64.25343 -21.51421 5075 ft 239 kts 308°
2026-05-09 16:12 64.26417 -21.54361 4984 ft 238 kts 308°
2026-05-09 16:13 64.27485 -21.57263 5019 ft 239 kts 308°
2026-05-09 16:13 64.28555 -21.60197 4996 ft 238 kts 307°
2026-05-09 16:13 64.29635 -21.63187 5059 ft 239 kts 308°
2026-05-09 16:13 64.30677 -21.66067 5018 ft 236 kts 308°
2026-05-09 16:14 64.31722 -21.69042 4999 ft 236 kts 304°
2026-05-09 16:14 64.32443 -21.72358 4998 ft 234 kts 284°
2026-05-09 16:14 64.32512 -21.76257 4996 ft 234 kts 259°
2026-05-09 16:14 64.31836 -21.79719 4990 ft 237 kts 234°
2026-05-09 16:15 64.30581 -21.82258 4992 ft 240 kts 216°
2026-05-09 16:15 64.29140 -21.84250 4995 ft 241 kts 213°
2026-05-09 16:15 64.27684 -21.86151 4997 ft 241 kts 213°
2026-05-09 16:15 64.26235 -21.88051 4990 ft 240 kts 213°
2026-05-09 16:16 64.24784 -21.89974 4938 ft 239 kts 214°
2026-05-09 16:16 64.23340 -21.91898 4800 ft 239 kts 214°
2026-05-09 16:16 64.21905 -21.93801 4669 ft 240 kts 211°
2026-05-09 16:16 64.20250 -21.94993 4525 ft 250 kts 196°
2026-05-09 16:17 64.18502 -21.95165 4391 ft 244 kts 177°
2026-05-09 16:17 64.16888 -21.95096 4254 ft 230 kts 196°
2026-05-09 16:17 64.15527 -21.96749 4116 ft 219 kts 229°
2026-05-09 16:17 64.14838 -21.99663 3978 ft 202 kts 262°
2026-05-09 16:18 64.14986 -22.02726 3842 ft 193 kts 294°
2026-05-09 16:18 64.15812 -22.05112 3723 ft 192 kts 315°
2026-05-09 16:18 64.16866 -22.07047 3605 ft 195 kts 325°
2026-05-09 16:18 64.18087 -22.08444 3511 ft 197 kts 331°
2026-05-09 16:19 64.19331 -22.09759 3494 ft 198 kts 331°
2026-05-09 16:19 64.20611 -22.11007 3488 ft 198 kts 333°
2026-05-09 16:19 64.21848 -22.12278 3487 ft 196 kts 331°
2026-05-09 16:19 64.23097 -22.13704 3505 ft 195 kts 329°
2026-05-09 16:20 64.24289 -22.15163 3508 ft 196 kts 328°
2026-05-09 16:20 64.25098 -22.16188 3496 ft 196 kts 327°
2026-05-09 16:20 64.26678 -22.18214 3498 ft 197 kts 330°
2026-05-09 16:20 64.27532 -22.19010 3496 ft 199 kts 341°
2026-05-09 16:21 64.29364 -22.19126 3496 ft 206 kts 10°
2026-05-09 16:21 64.30342 -22.18173 3496 ft 209 kts 28°
2026-05-09 16:21 64.31546 -22.15204 3497 ft 215 kts 57°
2026-05-09 16:21 64.32179 -22.12095 3496 ft 217 kts 66°
2026-05-09 16:22 64.32679 -22.08757 3496 ft 217 kts 71°
2026-05-09 16:22 64.33078 -22.05329 3496 ft 218 kts 77°
2026-05-09 16:22 64.33029 -22.01822 3489 ft 219 kts 110°
2026-05-09 16:22 64.32133 -21.99186 3495 ft 200 kts 145°
2026-05-09 16:23 64.30952 -21.97713 3492 ft 194 kts 161°
2026-05-09 16:23 64.30018 -21.97104 3492 ft 192 kts 174°
2026-05-09 16:23 64.28682 -21.96810 3362 ft 190 kts 180°
2026-05-09 16:23 64.27397 -21.96580 3107 ft 187 kts 180°
2026-05-09 16:24 64.26106 -21.96326 2863 ft 186 kts 180°
2026-05-09 16:24 64.24869 -21.96070 2705 ft 176 kts 180°
2026-05-09 16:24 64.23625 -21.95820 2589 ft 168 kts 180°
2026-05-09 16:24 64.22458 -21.95590 2466 ft 159 kts 180°
2026-05-09 16:25 64.21418 -21.95390 2359 ft 148 kts 181°
2026-05-09 16:25 64.20440 -21.95203 2231 ft 139 kts 181°
2026-05-09 16:25 64.19455 -21.95014 2048 ft 137 kts 181°
2026-05-09 16:25 64.18498 -21.94831 1802 ft 136 kts 181°
2026-05-09 16:26 64.17560 -21.94658 1441 ft 144 kts 181°
2026-05-09 16:26 64.16498 -21.94482 912 ft 154 kts 180°
2026-05-09 16:26 64.15433 -21.94240 486 ft 153 kts 178°
2026-05-09 16:26 64.14404 -21.94006 218 ft 141 kts 180°
2026-05-09 16:27 64.13472 -21.93842 52 ft 129 kts 181°
2026-05-09 16:27 64.12737 -21.93726 53 ft 63 kts 176°
2026-05-09 16:27 64.12469 -21.93648 52 ft 18 kts 142°
2026-05-09 16:27 64.12448 -21.93558 57 ft 0 kts 103°
2026-05-09 16:29 64.12451 -21.93493 56 ft 6 kts 65°
2026-05-09 16:29 64.12509 -21.93442 51 ft 13 kts
2026-05-09 16:29 64.12633 -21.93458 55 ft 20 kts 355°
2026-05-09 16:30 64.12725 -21.93475 51 ft 21 kts 355°
2026-05-09 16:30 64.12921 -21.93545 48 ft 18 kts 340°
2026-05-09 16:30 64.12976 -21.93568 48 ft 4 kts 358°
2026-05-09 16:30 64.12994 -21.93553 47 ft 4 kts 28°
2026-05-09 16:31 64.13002 -21.93530 48 ft 1 kts 60°
2026-05-09 16:31 64.13010 -21.93524 49 ft 3 kts 20°
2026-05-09 16:31 64.13049 -21.93528 48 ft 0 kts
2026-05-09 16:31 64.13053 -21.93511 48 ft 1 kts 59°
2026-05-09 16:32 64.13051 -21.93500 48 ft 1 kts 89°
2026-05-09 16:32 64.13050 -21.93492 49 ft 2 kts 104°
2026-05-09 16:32 64.13043 -21.93474 47 ft 2 kts 131°
2026-05-09 16:32 64.13037 -21.93464 46 ft 1 kts 142°
2026-05-09 16:33 64.13027 -21.93454 47 ft 2 kts 157°
2026-05-09 16:33 64.13026 -21.93453 46 ft 0 kts 158°